[[{"header":{"parameterUnit":"m.s-1","parameterCategory":1,"la1":30.2991,"la2":30.254,"lo1":-89.0895,"lo2":-89.0444,"dy":0.0017,"dx":0.0017,"nx":28,"ny":28,"refTime":"2023-08-17T21:00:00:Z","depth":0,"parameterNumber":2,"parameterNumberName":"U-component_of_WINDS"},"data":[0,0,0,0,0,0,0,0,0,0,0,0,0,0,0,0,0,0,0,0,0,0,0,0,0,0,0,0,0,0,0,0,0,0,0,0,0,0,0,0,0,0,0,0,0,0,0,0,0,0,0,0,0,0,0,0,0,0,3.5177,3.5178,0,3.5309,3.531,3.5312,3.5284,3.5282,3.528,3.5277,3.5412,3.5418,3.5424,0,0,0,0,0,0,0,0,0,0,0,0,0,3.49,3.4905,3.5177,3.5178,3.518,3.5309,3.5311,3.5312,3.5285,3.5282,3.5279,3.5276,3.541,3.5417,3.5424,0,0,0,0,0,0,0,0,0,0,0,0,0,3.5025,3.4907,3.5176,3.5182,3.5184,3.5308,3.5311,3.5313,3.5285,3.5282,3.5278,3.5275,3.5408,3.5417,3.5425,3.5553,0,0,3.5452,3.5456,0,0,0,0,0,0,0,0,3.5018,3.5035,3.5179,3.5182,3.5184,3.5276,3.5262,3.5393,3.5286,3.5247,3.5277,3.5273,3.537,3.5382,3.5414,3.5559,3.5565,3.5453,3.5458,3.5462,3.5465,0,0,0,0,0,0,0,3.5009,3.5029,3.5229,3.5182,3.5184,3.5177,3.5191,3.5287,3.5327,3.525,3.5248,3.5264,3.5371,3.5406,3.5417,3.5567,3.5453,3.546,3.5466,3.5469,3.5821,3.5825,0,0,0,0,0,0,3.4998,3.5022,3.5225,3.5233,3.509,3.5185,3.5201,3.525,3.5326,3.5334,3.5267,3.5263,3.5393,3.5407,3.5422,3.5575,3.5462,3.547,3.5475,3.5817,3.5822,3.5826,0,0,0,0,0,0,3.4993,3.5017,3.5219,3.5127,3.5152,3.5194,3.525,3.5255,3.529,3.5339,3.5346,3.5296,3.5391,3.541,3.552,3.558,3.5474,3.5482,3.5812,3.5819,3.5824,3.5883,0,0,0,0,0,0,3.4985,3.5015,3.5064,3.5128,3.5157,3.5316,3.5254,3.526,3.5306,3.5301,3.5368,3.5376,3.5389,3.5507,3.5529,3.559,3.5489,3.5807,3.5815,3.5822,3.5876,3.589,3.5903,0,0,0,0,0,3.4975,3.5076,3.5067,3.5091,3.522,3.5319,3.5336,3.5349,3.5311,3.536,3.5391,3.5374,3.557,3.5519,3.5543,3.5607,3.5803,3.5813,3.5822,3.587,3.5888,3.5902,0,0,0,0,0,0,3.5017,3.5084,3.5075,3.5199,3.5254,3.5314,3.5377,3.5367,3.5434,3.5426,3.544,3.5455,3.5567,3.5599,3.5541,3.5734,3.5681,3.5696,3.5709,3.5727,3.574,3.5729,3.5496,0,0,0,0,0,3.5041,3.5116,3.5171,3.5275,3.5303,3.5336,3.5379,3.5385,3.5442,3.5465,3.5504,3.556,3.5633,3.5682,3.5753,3.5881,3.5894,3.5937,3.595,3.5961,3.5973,3.6042,3.6061,3.5857,3.5856,3.5856,0,0,3.5091,3.5137,3.5183,3.5285,3.5328,3.5405,3.5355,3.5439,3.5496,3.5477,3.5584,3.5615,3.5677,3.5797,3.5851,3.5826,3.6033,3.5973,3.5981,3.5987,3.6053,3.6072,3.609,3.5863,3.5862,3.5861,0,0,3.5221,3.5264,3.5355,3.5399,3.5464,3.5485,3.5507,3.5569,3.5588,3.5696,3.5682,3.5751,3.5878,3.5923,3.5963,3.6109,3.6095,3.6132,3.6202,3.6269,3.6285,3.6299,3.635,3.6368,3.6144,3.6144,3.6144,0,3.5274,3.539,3.5403,3.5488,3.5533,3.5519,3.5611,3.5653,3.5738,3.5769,3.5739,3.5898,3.594,3.6069,3.6105,3.6138,3.6162,3.6124,3.6281,3.6296,3.6309,3.6358,3.6378,3.6148,3.6148,3.6147,3.6147,0,3.5452,3.5533,3.5599,3.5681,3.5733,3.5822,3.5847,3.5898,3.5899,3.5923,3.6031,3.6081,3.6161,3.6192,3.6194,3.6321,3.6304,3.6278,3.6225,3.6333,3.6379,3.6398,3.6154,3.6152,3.6151,3.615,0,0,3.5613,3.57,3.5724,3.5761,3.5832,3.5894,3.5981,3.6059,3.6103,3.6162,3.6235,3.6343,3.6319,3.6364,3.6371,3.643,3.6541,3.6397,3.6398,3.6421,3.6683,3.6701,3.6723,3.6533,3.6536,3.6539,3.6677,0,3.5748,3.5902,3.5916,3.6054,3.6128,3.6115,3.6191,3.6243,3.6267,3.6333,3.636,3.6436,3.64,3.6427,3.6485,3.6515,3.6594,3.6506,3.66,3.6603,3.6583,3.6747,3.6767,3.6895,3.6696,3.6699,3.6701,0,3.5927,3.5991,3.6137,3.6196,3.6228,3.6296,3.6368,3.6431,3.6489,3.6503,3.6553,3.6551,3.6641,3.6585,3.6707,3.6647,3.6686,3.6707,3.6713,3.6721,3.6658,3.6759,3.6936,3.6955,3.673,3.6727,3.6725,0,3.6028,3.6151,3.6253,3.6285,3.6357,3.6405,3.6437,3.6492,3.6537,3.66,3.663,3.6703,3.6743,3.6799,3.6817,3.6775,3.6939,3.6884,3.6951,3.6951,3.6986,3.6983,3.7171,3.7013,3.7013,3.7013,3.7012,0,3.6178,3.6267,3.6299,3.6362,3.6461,3.6476,3.6573,3.6603,3.6651,3.6719,3.6713,3.6777,3.6798,3.6865,3.688,3.6979,3.6997,3.701,3.7012,3.701,3.7008,3.7035,3.7026,3.7018,3.7017,3.7016,3.7015,0,3.6307,3.6332,3.6443,3.6502,3.6519,3.6589,3.6639,3.67,3.6723,3.6809,3.683,3.6867,3.6946,3.6969,3.7065,3.7074,3.7189,3.7185,3.717,3.717,3.7235,3.7228,3.7445,3.7474,3.7299,3.7301,3.7302,0,3.64,3.6468,3.6534,3.6579,3.6613,3.6686,3.6733,3.6749,3.6798,3.6868,3.692,3.6998,3.7061,3.7188,3.7222,3.7295,3.7291,3.7362,3.7302,3.7297,3.7291,3.7286,3.7292,3.7373,3.7375,3.7377,3.7378,0,3.6563,3.6572,3.6639,3.6711,3.6766,3.6823,3.6878,3.6916,3.694,3.6995,3.7075,3.7124,3.7221,3.7298,3.7371,3.7404,3.7395,3.7397,3.7416,3.7413,3.7401,3.7407,3.72,3.7392,3.739,3.7389,3.7388,3.7388,3.6676,3.6736,3.6791,3.6866,3.6909,3.696,3.7019,3.705,3.7117,3.7197,3.7202,3.7289,3.7344,3.7442,3.7478,3.7546,3.7525,3.7553,3.756,3.7567,3.7571,3.7391,3.756,3.7559,3.7559,3.7559,3.7559,0,3.6837,3.6872,3.6941,3.7018,3.7076,3.7063,3.7123,3.7172,3.7249,3.7301,3.7363,3.7454,3.7529,3.7569,3.7644,3.769,3.7688,3.7709,3.7705,3.7712,3.7586,3.7562,3.7709,3.7709,3.7709,3.7709,3.7709,3.7709,3.6928,3.7028,3.7043,3.7163,3.7197,3.7282,3.7317,3.7364,3.7406,3.7508,3.757,3.7596,3.7643,3.772,3.7788,3.7798,3.7825,3.7848,3.7856,3.7737,3.7721,3.7707,3.7684,3.7854,3.7854,3.7976,3.7977,3.7978]},{"header":{"parameterUnit":"m.s-1","parameterCategory":1,"la1":30.2991,"la2":30.254,"lo1":-89.0895,"lo2":-89.0444,"dy":0.0017,"dx":0.0017,"nx":28,"ny":28,"refTime":"2023-08-17T21:00:00:Z","depth":0,"parameterNumber":3,"parameterNumberName":"V-component_of_WINDS"},"data":[0,0,0,0,0,0,0,0,0,0,0,0,0,0,0,0,0,0,0,0,0,0,0,0,0,0,0,0,0,0,0,0,0,0,0,0,0,0,0,0,0,0,0,0,0,0,0,0,0,0,0,0,0,0,0,0,0,0,-0.8137,-0.8137,0,-0.8149,-0.8149,-0.815,-0.8138,-0.8138,-0.8138,-0.8137,-0.8149,-0.815,-0.815,0,0,0,0,0,0,0,0,0,0,0,0,0,-0.8104,-0.8104,-0.8137,-0.8137,-0.8137,-0.8149,-0.815,-0.815,-0.8139,-0.8138,-0.8137,-0.8137,-0.8149,-0.815,-0.8151,0,0,0,0,0,0,0,0,0,0,0,0,0,-0.8117,-0.8105,-0.8137,-0.8133,-0.8133,-0.8149,-0.815,-0.815,-0.8139,-0.8138,-0.8137,-0.8137,-0.8148,-0.815,-0.8151,-0.8171,0,0,-0.8154,-0.8155,0,0,0,0,0,0,0,0,-0.8117,-0.8119,-0.8134,-0.8134,-0.8133,-0.8142,-0.8142,-0.8157,-0.8139,-0.8137,-0.8137,-0.8136,-0.8147,-0.8148,-0.8152,-0.8172,-0.8172,-0.8154,-0.8155,-0.8155,-0.8156,0,0,0,0,0,0,0,-0.8116,-0.8118,-0.8142,-0.8134,-0.8134,-0.8131,-0.8132,-0.8145,-0.8145,-0.8137,-0.8136,-0.8138,-0.8147,-0.8151,-0.8152,-0.8172,-0.8154,-0.8155,-0.8156,-0.8156,-0.821,-0.821,0,0,0,0,0,0,-0.8115,-0.8117,-0.8141,-0.8142,-0.8123,-0.8132,-0.8133,-0.814,-0.8145,-0.8145,-0.8138,-0.8137,-0.8149,-0.8151,-0.8153,-0.8177,-0.8155,-0.8156,-0.8157,-0.8209,-0.821,-0.8211,0,0,0,0,0,0,-0.8114,-0.8117,-0.8141,-0.813,-0.8132,-0.8133,-0.8141,-0.814,-0.8144,-0.8146,-0.8146,-0.8142,-0.8149,-0.8151,-0.8167,-0.8177,-0.8157,-0.8158,-0.8208,-0.8209,-0.821,-0.8225,0,0,0,0,0,0,-0.8114,-0.8117,-0.8125,-0.813,-0.8133,-0.8155,-0.8141,-0.8141,-0.8146,-0.8145,-0.815,-0.815,-0.8149,-0.8165,-0.8168,-0.8178,-0.8159,-0.8207,-0.8208,-0.821,-0.8224,-0.8227,-0.823,0,0,0,0,0,-0.8112,-0.8129,-0.8125,-0.8128,-0.8143,-0.8155,-0.8157,-0.8155,-0.8147,-0.8155,-0.8156,-0.815,-0.8176,-0.8167,-0.817,-0.8181,-0.8206,-0.8208,-0.821,-0.8223,-0.8226,-0.8229,0,0,0,0,0,0,-0.8124,-0.8129,-0.8126,-0.8144,-0.8149,-0.8154,-0.8163,-0.8159,-0.8167,-0.8165,-0.8162,-0.8163,-0.818,-0.8182,-0.8172,-0.8201,-0.819,-0.8192,-0.8199,-0.8202,-0.8205,-0.8204,-0.816,0,0,0,0,0,-0.8129,-0.8139,-0.8143,-0.8159,-0.8162,-0.8162,-0.8168,-0.8166,-0.8171,-0.8173,-0.8176,-0.8181,-0.819,-0.8197,-0.8205,-0.8225,-0.8226,-0.8234,-0.8236,-0.8239,-0.8241,-0.8251,-0.8255,-0.8216,-0.8216,-0.8216,0,0,-0.8139,-0.8143,-0.8149,-0.8161,-0.8165,-0.8176,-0.8164,-0.8176,-0.8183,-0.8175,-0.819,-0.8192,-0.8198,-0.8216,-0.8223,-0.8218,-0.8252,-0.8241,-0.8243,-0.8243,-0.8253,-0.8257,-0.826,-0.8217,-0.8217,-0.8217,0,0,-0.8162,-0.8166,-0.818,-0.8185,-0.8191,-0.8191,-0.8195,-0.82,-0.8201,-0.8216,-0.821,-0.8219,-0.8235,-0.824,-0.8244,-0.8271,-0.8265,-0.8274,-0.8288,-0.8298,-0.8301,-0.8304,-0.8313,-0.8316,-0.8276,-0.8276,-0.8276,0,-0.8174,-0.8189,-0.8187,-0.82,-0.8205,-0.8199,-0.8212,-0.8217,-0.8226,-0.823,-0.8223,-0.8244,-0.8247,-0.8266,-0.8273,-0.8276,-0.828,-0.8272,-0.8301,-0.8304,-0.8306,-0.8315,-0.8318,-0.8277,-0.8276,-0.8276,-0.8276,0,-0.8203,-0.8214,-0.8224,-0.8234,-0.824,-0.8253,-0.8253,-0.826,-0.8258,-0.8259,-0.8274,-0.8279,-0.8288,-0.8293,-0.829,-0.8311,-0.8308,-0.8301,-0.829,-0.8311,-0.8319,-0.8322,-0.8278,-0.8278,-0.8277,-0.8277,0,0,-0.8233,-0.8242,-0.8246,-0.825,-0.8257,-0.8266,-0.8278,-0.8288,-0.8294,-0.8301,-0.8311,-0.8326,-0.832,-0.8325,-0.8323,-0.8333,-0.8353,-0.8325,-0.8325,-0.833,-0.8376,-0.8381,-0.8385,-0.835,-0.8351,-0.8351,-0.8376,0,-0.8256,-0.8279,-0.8278,-0.8299,-0.8309,-0.8304,-0.8315,-0.8321,-0.8322,-0.8331,-0.8333,-0.8343,-0.8335,-0.8338,-0.8347,-0.8349,-0.8362,-0.8347,-0.8359,-0.836,-0.8358,-0.8389,-0.8394,-0.8417,-0.8379,-0.838,-0.838,0,-0.8286,-0.8295,-0.8317,-0.8323,-0.8327,-0.8337,-0.8346,-0.8355,-0.8361,-0.8362,-0.8368,-0.8365,-0.8378,-0.8367,-0.8385,-0.8375,-0.838,-0.8382,-0.8383,-0.8383,-0.8371,-0.839,-0.8424,-0.8428,-0.8385,-0.8385,-0.8384,0,-0.8306,-0.8322,-0.8338,-0.8342,-0.8349,-0.8357,-0.836,-0.8366,-0.8372,-0.838,-0.8384,-0.8394,-0.8399,-0.8406,-0.8406,-0.8398,-0.8424,-0.8413,-0.8425,-0.8425,-0.843,-0.8429,-0.8465,-0.8434,-0.8434,-0.8434,-0.8434,0,-0.8332,-0.8345,-0.8347,-0.8356,-0.8371,-0.8371,-0.8386,-0.8388,-0.8394,-0.8404,-0.84,-0.8409,-0.8408,-0.8418,-0.8418,-0.8433,-0.8435,-0.8436,-0.8436,-0.8436,-0.8436,-0.8439,-0.8437,-0.8435,-0.8435,-0.8434,-0.8434,0,-0.8356,-0.8357,-0.8374,-0.838,-0.8382,-0.8393,-0.8398,-0.8407,-0.8409,-0.8421,-0.8424,-0.8427,-0.8438,-0.8438,-0.8451,-0.8451,-0.8469,-0.8467,-0.8467,-0.8467,-0.8478,-0.8477,-0.8517,-0.8522,-0.8488,-0.8488,-0.8488,0,-0.8372,-0.8382,-0.839,-0.8397,-0.8401,-0.8411,-0.8417,-0.8417,-0.8424,-0.8433,-0.8441,-0.8451,-0.846,-0.8478,-0.8481,-0.8491,-0.8489,-0.8502,-0.849,-0.849,-0.8489,-0.8488,-0.8489,-0.8504,-0.8504,-0.8505,-0.8505,0,-0.8401,-0.8401,-0.841,-0.842,-0.8428,-0.8436,-0.8443,-0.8449,-0.8449,-0.8457,-0.8469,-0.8475,-0.8489,-0.8499,-0.8509,-0.8513,-0.8509,-0.8509,-0.8512,-0.8512,-0.8512,-0.8512,-0.8473,-0.8508,-0.8507,-0.8507,-0.8507,-0.8507,-0.8421,-0.843,-0.8437,-0.8448,-0.8453,-0.846,-0.8469,-0.8472,-0.8482,-0.8493,-0.8492,-0.8505,-0.8512,-0.8525,-0.8529,-0.8539,-0.8534,-0.8539,-0.854,-0.8541,-0.8543,-0.851,-0.8541,-0.8541,-0.8541,-0.8541,-0.854,0,-0.8449,-0.8454,-0.8464,-0.8474,-0.8483,-0.8479,-0.8487,-0.8494,-0.8506,-0.8512,-0.8521,-0.8535,-0.8545,-0.8549,-0.856,-0.8567,-0.8565,-0.857,-0.8569,-0.857,-0.8546,-0.8542,-0.8571,-0.8571,-0.8571,-0.8571,-0.8571,-0.8571,-0.8465,-0.848,-0.8482,-0.85,-0.8504,-0.8517,-0.8522,-0.8528,-0.8534,-0.8549,-0.8558,-0.8561,-0.8566,-0.8577,-0.8587,-0.8588,-0.8592,-0.8597,-0.8597,-0.8574,-0.8571,-0.8568,-0.8565,-0.8598,-0.8598,-0.862,-0.862,-0.862]}]]